Temperature
17 21 19 18 17 17 18 18 18 17 13 12 13 14 14 9 7 8 8 8 7 6 5 3 2 2 1 1 1 0 -0 -1 -1 -1 -1 -2 -3 -4 -5 -6 -7 -7 -8 -9
20 19 16 15 15 16 17 18 18 16 12 12 13 14 14 12 9 8 9 8 7 6 5 2 2 1 1 1 1 0 -1 -1 -2 -2 -2 -3 -4 -5 -6 -7 -7 -8 -9 -9
20 17 14 15 16 17 17 17 17 16 14 12 12 17 14 11 8 8 7 8 8 7 5 3 2 1 1 1 1 -0 -1 -1 -2 -2 -3 -4 -5 -6 -7 -7 -8 -8 -9 -10
17 15 15 16 16 16 18 15 14 14 15 17 14 18 18 13 12 10 8 8 7 6 5 3 2 1 1 1 1 -0 -1 -2 -2 -3 -3 -4 -5 -6 -7 -8 -8 -9 -9 -10
17 15 15 16 15 14 15 13 13 13 14 16 15 17 20 13 15 15 11 9 8 6 5 3 2 1 1 1 0 -1 -1 -2 -3 -3 -4 -4 -6 -6 -7 -8 -9 -9 -10 -10
15 14 14 15 13 13 13 13 13 13 15 18 16 17 19 18 17 16 12 9 7 5 3 2 1 2 2 1 -0 -1 -2 -2 -3 -3 -4 -5 -6 -7 -8 -9 -9 -10 -10 -10
16 15 14 13 15 15 15 18 19 19 19 19 14 15 18 17 15 13 12 9 7 4 3 2 2 2 1 1 -0 -1 -2 -2 -3 -3 -4 -5 -6 -7 -8 -9 -10 -10 -11 -11
19 18 15 14 15 16 15 17 18 18 18 18 15 16 19 15 11 9 8 7 5 3 2 1 2 1 1 0 -1 -1 -2 -3 -3 -4 -4 -5 -7 -7 -8 -9 -10 -11 -11 -11
19 18 13 12 12 14 16 16 15 16 16 15 18 18 18 13 11 9 8 6 5 3 2 1 1 1 1 0 -1 -1 -2 -3 -3 -4 -5 -6 -7 -8 -8 -9 -10 -11 -11 -11
17 17 14 12 12 12 14 15 15 16 16 17 18 18 18 19 18 14 11 8 5 3 1 1 1 1 1 0 -1 -1 -2 -3 -3 -4 -5 -5 -7 -7 -8 -9 -10 -11 -11 -11
14 17 15 14 14 16 13 13 14 15 15 16 17 19 18 18 17 15 13 10 6 3 2 2 1 1 1 -0 -1 -1 -2 -3 -4 -4 -5 -6 -7 -7 -8 -9 -10 -10 -11 -11
13 16 18 16 12 12 14 15 15 16 16 14 15 18 18 15 14 12 11 9 6 4 2 2 1 1 0 -0 -1 -2 -3 -3 -4 -4 -5 -6 -7 -8 -8 -9 -9 -10 -11 -11
11 15 18 17 14 12 12 12 13 14 15 14 15 18 17 13 12 11 9 8 5 3 2 1 1 1 0 -0 -1 -2 -3 -3 -4 -4 -5 -6 -7 -8 -8 -9 -9 -10 -11 -11
10 14 17 19 18 16 14 12 11 13 15 15 14 17 19 18 17 14 11 8 5 3 2 2 1 1 0 -1 -1 -2 -3 -3 -4 -5 -5 -6 -7 -7 -8 -8 -9 -10 -10 -11
10 13 14 14 13 12 13 13 11 12 15 15 17 16 17 18 17 14 10 7 4 2 1 2 2 1 0 -1 -1 -2 -3 -3 -4 -5 -5 -6 -7 -7 -8 -8 -9 -9 -10 -11
9 12 12 13 11 10 10 11 11 11 12 13 14 14 16 16 13 10 8 6 4 3 3 2 2 1 0 -0 -1 -2 -3 -3 -4 -5 -5 -6 -6 -7 -8 -8 -9 -9 -10 -10
9 11 13 15 12 11 14 14 11 10 11 12 13 16 17 13 12 11 9 7 7 6 4 3 3 2 1 -0 -1 -2 -3 -3 -4 -5 -5 -6 -6 -7 -8 -8 -9 -9 -9 -10
10 11 13 13 14 14 19 13 12 11 12 11 12 14 14 13 11 10 10 8 8 7 5 4 3 1 0 -1 -1 -2 -3 -3 -4 -5 -5 -6 -6 -7 -7 -8 -8 -9 -9 -10
8 11 12 11 13 16 17 11 10 11 14 14 12 13 13 9 7 11 13 12 10 8 6 5 3 1 0 -1 -1 -2 -2 -3 -4 -5 -5 -6 -6 -7 -7 -7 -8 -8 -9 -9
6 9 11 9 12 15 18 12 9 12 14 15 12 13 12 6 12 15 12 11 9 7 5 4 2 1 0 -1 -1 -2 -2 -3 -4 -4 -5 -6 -6 -6 -7 -7 -7 -8 -8 -9
7 8 9 9 11 14 15 8 10 15 18 18 15 14 12 9 13 13 11 10 9 7 5 3 2 1 0 -1 -1 -2 -2 -3 -4 -4 -5 -5 -6 -6 -6 -7 -7 -7 -8 -8
10 9 9 10 11 13 11 9 13 18 18 17 17 16 14 14 13 12 11 9 8 7 5 3 2 1 -0 -1 -1 -2 -2 -3 -4 -4 -5 -5 -6 -6 -6 -6 -6 -7 -7 -8
11 12 12 12 15 15 11 14 16 17 17 18 17 16 15 13 13 12 11 9 8 6 5 3 2 1 -0 -1 -1 -2 -2 -3 -3 -4 -5 -5 -5 -5 -5 -6 -6 -6 -7 -8
10 9 10 10 12 12 12 14 16 17 17 18 17 16 15 14 14 12 11 9 8 6 5 3 2 1 0 -1 -1 -2 -2 -3 -3 -4 -4 -5 -5 -5 -5 -5 -5 -6 -6 -8
13 8 9 11 13 12 14 17 19 19 18 18 18 17 16 15 14 13 11 10 8 7 5 3 2 1 1 -0 -1 -2 -2 -3 -3 -4 -4 -4 -5 -4 -5 -5 -5 -6 -6 -7
10 9 11 15 16 14 17 19 18 18 18 18 17 17 16 15 14 13 12 10 8 7 6 4 3 1 0 -1 -1 -2 -2 -3 -3 -4 -4 -4 -4 -4 -4 -4 -5 -5 -6 -6
Wind_Speed
4 3 5 4 3 2 1 3 5 2 3 6 11 14 11 12 16 18 17 18 18 17 14 12 12 10 7 3 1 4 6 8 9 8 8 8 10 9 10 11 14 15 16 17
3 4 3 1 0 1 2 5 5 2 2 4 10 15 9 9 17 18 18 18 18 16 14 13 13 11 8 4 1 3 5 7 8 8 8 8 10 8 10 11 13 14 16 17
4 4 1 1 1 2 3 4 5 6 3 4 8 5 3 3 8 13 16 17 17 17 16 15 14 12 8 4 1 3 5 6 8 9 8 9 8 7 8 10 11 15 17 17
5 2 2 1 1 3 3 1 4 5 6 3 4 4 3 2 5 9 14 16 17 16 15 14 14 12 8 4 1 2 4 6 7 8 9 10 9 10 11 10 11 16 16 17
3 2 1 1 1 2 3 1 3 3 3 3 1 5 1 1 3 5 8 12 14 14 14 14 14 11 8 5 2 2 4 5 6 8 9 10 9 9 10 11 13 14 15 16
4 2 1 1 0 1 2 2 3 3 3 2 1 4 3 2 2 3 3 5 9 11 12 13 12 10 8 5 2 2 4 5 6 7 8 9 11 12 13 13 13 13 12 14
3 3 1 1 2 2 2 5 4 3 2 3 1 5 6 1 4 6 6 5 6 10 13 14 14 11 8 6 3 2 4 5 6 7 8 9 10 12 13 13 13 14 12 13
3 3 2 1 1 2 2 4 4 5 6 6 2 5 4 2 3 5 7 7 7 12 13 14 13 10 8 6 4 3 3 4 6 7 8 8 10 9 9 12 12 13 12 13
3 2 2 1 1 2 1 2 2 2 4 6 6 5 7 4 7 9 9 8 10 13 14 14 12 10 8 6 5 3 3 4 6 7 8 8 9 10 11 12 12 11 13 15
2 3 3 2 3 3 3 4 3 2 4 6 8 7 4 5 6 6 9 12 12 14 15 14 12 11 8 6 5 4 3 4 6 7 7 7 9 10 11 11 12 13 15 16
2 4 3 4 6 4 5 4 3 2 3 4 7 7 4 8 7 8 9 9 12 15 16 15 12 11 8 7 5 4 3 4 5 6 7 8 9 10 11 10 12 13 14 16
3 3 3 3 2 2 3 5 6 4 4 4 5 8 3 7 7 9 10 8 10 14 15 14 13 11 9 8 6 4 3 4 5 6 7 8 9 10 10 11 12 13 14 15
5 4 3 3 3 4 5 5 6 3 3 6 5 9 2 4 8 10 11 10 9 13 15 14 13 11 10 8 7 5 4 4 5 6 7 8 9 10 11 11 12 13 13 14
3 5 7 5 1 5 7 8 10 9 7 7 12 18 17 14 13 11 10 10 10 13 15 15 14 12 10 9 7 6 4 4 5 6 7 8 9 10 11 11 12 12 13 13
4 5 6 8 5 4 8 11 14 16 14 12 13 14 20 19 16 12 8 7 11 14 16 16 15 12 11 10 8 7 5 4 5 6 7 8 9 10 10 11 11 12 12 13
5 5 3 5 4 6 9 15 18 18 15 18 21 21 23 18 11 9 9 10 13 16 17 17 15 13 12 11 9 7 6 4 5 6 7 8 8 9 10 11 11 12 12 13
6 5 4 4 2 5 11 13 18 11 13 13 15 14 10 8 11 12 10 12 15 16 17 18 17 15 13 12 10 8 6 5 5 7 7 8 8 9 10 11 11 12 12 13
7 5 3 4 3 9 5 3 11 11 11 17 16 16 15 14 11 11 12 13 14 15 17 17 15 14 12 11 10 8 6 6 6 7 7 8 8 9 11 11 12 13 12 12
3 5 4 3 5 10 6 6 8 9 9 14 19 20 17 4 8 10 11 14 14 15 16 16 15 14 13 12 10 9 7 6 7 7 8 8 8 10 11 12 12 12 12 12
2 3 4 4 5 8 4 5 5 4 7 7 13 16 10 2 8 8 4 9 12 12 13 13 14 14 13 12 11 9 8 7 8 7 7 8 9 10 11 12 13 12 12 12
5 6 8 8 8 11 2 7 8 5 5 3 11 12 9 10 11 2 4 8 11 13 14 14 15 14 13 12 12 10 9 9 7 6 7 9 9 10 11 11 11 12 11 12
12 10 10 8 8 11 8 11 11 8 2 3 7 9 11 15 11 6 7 9 13 14 15 16 15 13 12 13 12 11 10 8 6 6 7 9 9 9 8 10 11 11 10 11
12 12 9 13 11 3 13 12 9 3 5 7 7 9 11 13 13 11 10 12 14 15 16 16 15 14 13 13 13 12 9 7 6 6 7 8 8 8 8 9 10 9 8 8
9 6 7 9 15 11 13 16 14 13 15 17 13 11 11 14 14 13 12 13 15 16 17 16 16 15 14 14 14 12 9 8 7 7 7 7 7 8 8 7 7 7 7 8
9 11 8 12 11 9 14 18 22 20 20 20 18 16 16 16 16 15 14 15 16 16 17 17 17 17 16 15 14 12 10 9 8 7 6 6 6 7 7 6 6 7 7 8
9 12 12 15 10 10 11 7 9 14 18 17 16 15 14 16 17 15 15 15 16 17 18 18 18 17 16 15 14 13 12 11 9 7 6 5 5 5 6 6 6 6 6 10
Wind_Direction
26 84 73 52 18 8 312 280 293 309 152 234 258 269 258 207 210 220 221 220 221 222 215 197 193 189 189 195 305 347 343 343 342 341 340 338 336 332 332 333 332 331 331 330
127 83 55 23 106 215 251 279 296 281 178 258 292 286 275 221 216 223 227 227 226 223 210 198 194 193 198 203 280 337 342 340 342 340 332 326 321 319 322 327 328 329 329 326
91 89 87 148 106 259 257 283 311 311 304 234 301 279 171 186 226 233 237 238 234 226 216 201 195 194 196 201 256 339 337 333 337 336 330 326 322 323 332 333 329 328 326 322
92 100 158 166 88 321 297 295 292 292 296 303 337 320 148 184 239 233 233 232 233 226 219 204 193 191 191 181 162 322 327 327 334 336 334 335 332 332 332 329 323 324 323 321
114 107 128 193 21 291 314 308 264 258 270 277 261 298 268 153 240 230 232 232 230 223 213 199 189 182 174 165 174 300 315 320 332 336 336 333 330 328 325 326 324 326 324 323
103 110 35 34 177 243 246 217 185 201 237 266 58 313 291 177 227 246 238 241 225 211 198 187 175 167 166 167 190 274 303 316 330 334 335 333 330 328 326 328 327 328 325 324
151 152 119 222 234 185 271 309 314 309 310 344 76 275 267 254 247 261 271 267 221 197 186 177 173 174 177 186 206 255 291 316 332 334 333 331 327 325 325 327 326 326 325 326
205 178 130 42 353 350 21 348 359 324 318 316 255 262 276 226 244 253 260 259 215 195 188 183 179 178 181 190 208 245 287 318 330 330 329 325 325 323 321 323 322 321 321 322
221 179 122 64 35 306 145 100 24 275 282 282 274 273 286 209 248 243 242 234 215 198 191 186 181 180 184 192 207 240 285 314 325 325 323 320 325 324 321 320 318 319 320 321
234 203 166 145 151 55 9 140 169 250 304 299 294 280 263 276 286 243 237 232 217 199 192 188 184 183 186 192 204 229 275 308 315 316 319 317 320 321 319 317 319 320 320 322
228 223 172 190 210 198 159 164 179 184 253 275 298 292 207 259 282 276 270 245 215 198 193 189 184 183 185 192 206 226 263 294 305 312 314 316 319 320 318 317 319 320 320 322
200 237 223 192 105 352 232 210 193 229 224 228 266 274 210 242 260 262 270 261 220 200 192 187 182 181 188 198 207 222 252 282 299 306 309 313 317 319 319 320 320 320 321 322
179 215 228 193 184 194 216 207 203 203 221 221 239 267 168 236 256 258 262 260 218 195 188 184 183 188 194 200 206 218 241 272 291 299 305 310 317 320 321 320 319 319 321 322
199 236 242 264 246 177 201 197 191 190 216 230 235 265 285 289 290 288 270 250 216 195 190 189 190 192 194 199 205 215 234 260 282 293 300 307 316 320 319 317 317 318 321 322
206 246 247 265 258 233 239 221 199 210 226 241 256 263 277 291 301 298 282 236 207 198 195 195 194 192 193 197 203 211 227 250 271 285 295 304 311 314 314 315 316 317 319 320
210 238 252 268 240 229 256 241 223 227 237 246 262 273 272 281 282 268 254 226 211 206 201 198 195 193 194 197 199 204 218 239 263 277 286 293 300 304 307 310 314 316 317 318
189 204 227 262 197 286 267 236 202 205 215 216 232 249 268 266 264 269 259 224 218 210 201 197 196 195 194 193 193 198 210 228 253 269 278 285 293 299 304 308 311 315 316 315
180 192 237 278 283 246 257 123 181 205 229 220 239 259 268 273 290 279 257 236 223 209 199 196 193 190 186 183 185 191 202 226 249 264 271 278 286 293 300 307 310 314 315 314
214 202 226 240 256 274 267 185 178 203 261 225 230 251 264 301 305 276 235 222 220 205 196 190 186 180 176 178 181 187 205 224 244 258 267 275 281 288 296 303 308 314 314 311
130 199 223 208 229 248 255 144 157 161 275 230 211 238 246 199 287 304 165 199 203 192 183 176 171 170 175 178 178 191 208 223 240 254 269 279 282 286 294 302 309 313 314 310
172 192 211 218 237 263 243 138 150 191 267 203 206 227 209 212 245 278 164 187 186 179 173 169 168 174 179 175 179 197 210 224 236 253 271 280 286 291 297 301 307 311 313 313
180 179 196 188 210 251 162 154 194 228 252 216 222 225 222 233 244 223 206 190 180 176 174 172 174 178 176 176 185 201 214 219 225 246 267 280 289 294 294 303 309 314 317 317
205 200 195 197 215 275 173 203 225 272 256 248 239 236 228 241 244 227 212 197 188 183 178 178 178 178 179 184 192 206 210 204 214 241 263 280 291 295 299 306 312 319 323 322
216 208 207 234 255 247 229 243 253 248 251 262 258 250 230 237 243 225 209 196 190 187 183 180 181 185 188 190 198 207 200 194 211 239 262 280 291 300 307 310 313 318 322 324
206 179 210 241 259 288 258 237 244 251 254 259 259 248 240 238 239 222 208 199 192 188 185 184 188 192 193 190 197 201 199 197 211 233 254 274 287 298 307 313 314 316 317 323
196 192 204 246 229 222 257 236 225 240 253 252 249 250 236 227 232 218 209 199 191 188 185 188 193 195 192 190 195 196 195 196 205 222 241 262 284 298 308 315 317 312 313 326
Height
1582 1581 1584 1588 1590 1589 1588 1587 1585 1587 1596 1597 1590 1587 1587 1593 1596 1596 1596 1597 1597 1598 1601 1600 1599 1598 1598 1597 1595 1592 1589 1584 1580 1577 1573 1568 1563 1557 1551 1545 1539 1533 1527 1521
1581 1586 1593 1593 1593 1592 1590 1587 1584 1588 1596 1595 1587 1582 1581 1584 1589 1590 1591 1592 1592 1595 1596 1595 1595 1595 1595 1594 1592 1589 1585 1581 1577 1573 1569 1565 1559 1553 1547 1542 1536 1530 1524 1518
1581 1592 1594 1594 1592 1590 1589 1587 1587 1590 1591 1594 1591 1572 1578 1584 1586 1587 1587 1587 1588 1590 1591 1591 1590 1591 1591 1591 1589 1586 1582 1578 1574 1571 1566 1561 1556 1551 1546 1539 1533 1527 1521 1515
1588 1593 1594 1593 1592 1592 1587 1592 1593 1593 1589 1580 1589 1570 1567 1576 1580 1581 1581 1581 1582 1584 1586 1587 1586 1587 1588 1587 1585 1582 1579 1575 1571 1568 1563 1558 1553 1548 1542 1536 1530 1524 1518 1512
1589 1593 1592 1592 1593 1594 1591 1594 1593 1592 1589 1583 1584 1575 1561 1575 1571 1572 1575 1576 1577 1579 1581 1582 1582 1583 1584 1583 1581 1579 1576 1572 1569 1565 1560 1555 1550 1545 1539 1533 1527 1521 1515 1510
1591 1594 1594 1593 1595 1595 1593 1593 1592 1591 1585 1575 1581 1578 1563 1564 1565 1568 1572 1573 1573 1574 1576 1577 1578 1579 1580 1579 1578 1575 1572 1569 1566 1562 1558 1553 1547 1542 1536 1530 1524 1518 1512 1507
1589 1592 1594 1594 1591 1591 1590 1582 1576 1572 1571 1570 1587 1582 1565 1562 1566 1568 1569 1570 1570 1570 1571 1572 1573 1575 1576 1576 1574 1572 1569 1567 1564 1560 1555 1550 1544 1539 1533 1527 1521 1515 1509 1504
1582 1585 1591 1592 1591 1589 1589 1585 1586 1588 1579 1573 1580 1574 1558 1564 1566 1566 1566 1566 1566 1566 1567 1568 1570 1571 1572 1572 1570 1569 1566 1564 1561 1557 1552 1547 1541 1536 1530 1525 1519 1513 1507 1501
1579 1584 1593 1594 1594 1592 1588 1588 1592 1588 1589 1589 1568 1564 1557 1562 1562 1563 1562 1562 1561 1561 1562 1564 1565 1567 1568 1567 1567 1565 1563 1561 1558 1553 1549 1544 1539 1533 1528 1522 1517 1511 1505 1498
1583 1583 1590 1594 1595 1596 1593 1590 1591 1588 1588 1581 1565 1561 1557 1549 1550 1555 1557 1556 1556 1556 1557 1559 1561 1562 1563 1563 1563 1561 1560 1558 1554 1550 1546 1541 1536 1531 1525 1519 1514 1508 1502 1496
1587 1582 1587 1591 1590 1585 1593 1593 1590 1589 1588 1585 1574 1556 1547 1546 1548 1550 1550 1551 1550 1550 1551 1553 1556 1558 1559 1559 1558 1557 1556 1554 1551 1547 1543 1538 1533 1528 1522 1517 1511 1505 1499 1493
1588 1582 1577 1583 1589 1590 1587 1585 1585 1584 1583 1587 1581 1560 1543 1545 1547 1547 1546 1546 1545 1545 1547 1549 1551 1553 1554 1554 1554 1554 1552 1550 1547 1544 1540 1535 1530 1525 1520 1515 1509 1502 1496 1491
1589 1583 1575 1577 1586 1591 1588 1586 1586 1585 1583 1583 1579 1552 1541 1544 1544 1543 1542 1541 1540 1540 1541 1543 1546 1548 1549 1550 1550 1549 1548 1546 1544 1540 1537 1532 1528 1523 1518 1512 1506 1500 1494 1488
1588 1582 1574 1567 1566 1569 1578 1583 1585 1583 1578 1572 1567 1545 1533 1534 1535 1536 1536 1535 1535 1535 1536 1538 1541 1543 1544 1545 1545 1545 1544 1543 1540 1537 1533 1529 1525 1520 1515 1510 1504 1498 1492 1486
1587 1580 1575 1572 1574 1576 1572 1572 1578 1575 1565 1562 1546 1543 1533 1530 1531 1531 1531 1530 1529 1529 1530 1532 1535 1538 1539 1540 1541 1541 1540 1539 1537 1534 1530 1527 1522 1518 1512 1507 1501 1496 1490 1483
1585 1581 1579 1572 1573 1576 1574 1566 1567 1568 1565 1558 1551 1543 1529 1528 1528 1526 1525 1524 1522 1522 1524 1526 1529 1532 1534 1535 1536 1536 1536 1535 1533 1530 1527 1524 1519 1515 1510 1504 1499 1493 1487 1481
1581 1579 1575 1565 1570 1570 1556 1542 1554 1556 1551 1548 1543 1530 1523 1524 1523 1521 1519 1517 1515 1516 1517 1520 1523 1527 1529 1531 1532 1532 1532 1531 1529 1527 1524 1521 1517 1512 1507 1501 1496 1490 1485 1479
1578 1576 1572 1567 1565 1565 1530 1537 1539 1542 1538 1537 1530 1524 1521 1520 1518 1515 1512 1511 1509 1510 1512 1515 1518 1522 1524 1526 1527 1527 1527 1526 1525 1523 1521 1518 1514 1509 1504 1499 1493 1488 1482 1476
1576 1573 1570 1573 1563 1545 1530 1535 1538 1538 1529 1522 1524 1519 1516 1515 1513 1508 1506 1504 1504 1505 1507 1510 1514 1517 1519 1521 1522 1523 1523 1522 1521 1520 1517 1514 1510 1506 1501 1495 1490 1485 1479 1474
1577 1575 1573 1576 1566 1551 1522 1530 1531 1534 1527 1513 1514 1513 1512 1514 1511 1502 1501 1500 1500 1501 1503 1506 1509 1512 1514 1516 1517 1518 1518 1518 1517 1516 1514 1511 1507 1503 1498 1493 1488 1482 1477 1471
1573 1572 1571 1569 1562 1537 1522 1528 1532 1531 1516 1508 1507 1506 1507 1507 1503 1499 1497 1496 1496 1497 1498 1501 1504 1506 1509 1511 1512 1513 1514 1514 1513 1512 1510 1508 1504 1500 1495 1490 1485 1480 1474 1469
1550 1556 1559 1557 1557 1536 1522 1525 1522 1509 1504 1503 1502 1502 1500 1497 1495 1493 1491 1491 1491 1491 1493 1495 1498 1501 1503 1505 1507 1508 1509 1510 1509 1508 1507 1504 1501 1497 1493 1488 1483 1478 1472 1466
1536 1531 1531 1532 1521 1510 1510 1506 1504 1503 1501 1499 1497 1495 1493 1490 1487 1485 1484 1484 1484 1486 1487 1490 1493 1495 1498 1500 1502 1504 1505 1505 1505 1504 1503 1501 1498 1495 1490 1486 1481 1475 1470 1464
1525 1526 1525 1523 1510 1505 1504 1502 1500 1499 1496 1493 1491 1488 1485 1482 1479 1478 1477 1476 1477 1479 1481 1484 1486 1489 1492 1494 1496 1498 1499 1500 1501 1500 1499 1497 1495 1492 1489 1484 1479 1473 1468 1462
1509 1517 1516 1511 1501 1500 1494 1493 1492 1491 1488 1485 1483 1480 1477 1474 1471 1469 1468 1468 1469 1471 1474 1476 1479 1482 1486 1489 1491 1493 1494 1495 1496 1496 1495 1494 1492 1489 1486 1483 1478 1473 1467 1462
1502 1503 1504 1493 1490 1492 1485 1486 1485 1482 1479 1476 1474 1470 1467 1465 1462 1461 1459 1460 1461 1463 1466 1469 1472 1476 1479 1482 1485 1487 1488 1490 1491 1491 1491 1490 1489 1487 1484 1481 1477 1473 1468 1462